📊 Raw Sensor Data
Showing records 36626 to 36650 of 84,899 total
| ID | Distance (ft) | Battery V | Battery A | Int Temp (°F) | Int Humid (%) | Ext Temp (°F) | Solar V | RSSI | SNR | Time Stamp |
|---|---|---|---|---|---|---|---|---|---|---|
| 48286 | 14.9 | 3.86 | -5 | 61 | 46 | 62 | 0.10 | -68 | 7 | 08/04/2025 11:00 PM |
| 48285 | 14.9 | 3.86 | -5 | 62 | 47 | 63 | 0.00 | -69 | 7 | 08/04/2025 10:45 PM |
| 48284 | 14.8 | 3.86 | -5 | 63 | 47 | 63 | 0.00 | -68 | 8 | 08/04/2025 10:30 PM |
| 48283 | 14.9 | 3.86 | -5 | 64 | 47 | 64 | 0.00 | -70 | 8 | 08/04/2025 10:15 PM |
| 48282 | 14.8 | 3.87 | -5 | 65 | 48 | 65 | 0.00 | -70 | 8 | 08/04/2025 10:00 PM |
| 48281 | 14.8 | 3.85 | -5 | 65 | 48 | 66 | 0.00 | -71 | 8 | 08/04/2025 09:45 PM |
| 48280 | 14.8 | 3.95 | -5 | 66 | 49 | 66 | 0.10 | -69 | 8 | 08/04/2025 09:30 PM |
| 48279 | 14.8 | 3.86 | -5 | 67 | 50 | 67 | 0.10 | -68 | 7 | 08/04/2025 09:15 PM |
| 48278 | 14.8 | 3.88 | -5 | 68 | 52 | 68 | 0.00 | -69 | 8 | 08/04/2025 09:00 PM |
| 48277 | 14.8 | 3.88 | -5 | 69 | 54 | 69 | 0.00 | -69 | 8 | 08/04/2025 08:45 PM |
| 48276 | 14.8 | 3.95 | -5 | 71 | 55 | 69 | 0.50 | -69 | 8 | 08/04/2025 08:30 PM |
| 48275 | 14.9 | 3.87 | -10 | 74 | 57 | 70 | 1.90 | -69 | 8 | 08/04/2025 08:15 PM |
| 48274 | 15.0 | 3.97 | 0 | 84 | 54 | 78 | 4.50 | -69 | 8 | 08/04/2025 07:45 PM |
| 48273 | 15.0 | 3.98 | 5 | 87 | 53 | 81 | 4.50 | -70 | 8 | 08/04/2025 07:30 PM |
| 48272 | 15.0 | 3.99 | 9 | 90 | 53 | 82 | 4.50 | -69 | 8 | 08/04/2025 07:15 PM |
| 48271 | 15.0 | 4.01 | 29 | 93 | 52 | 85 | 4.50 | -70 | 6 | 08/04/2025 06:45 PM |
| 48270 | 15.0 | 3.94 | 0 | 95 | 51 | 85 | 5.10 | -70 | 8 | 08/04/2025 06:30 PM |
| 48269 | 15.0 | 3.94 | 5 | 96 | 51 | 87 | 5.10 | -70 | 8 | 08/04/2025 06:15 PM |
| 48268 | 15.1 | 3.94 | 5 | 99 | 49 | 87 | 5.10 | -69 | 8 | 08/04/2025 06:00 PM |
| 48267 | 15.0 | 3.94 | 5 | 101 | 48 | 92 | 5.10 | -69 | 8 | 08/04/2025 05:30 PM |
| 48266 | 15.0 | 3.94 | 5 | 102 | 48 | 90 | 5.10 | -70 | 8 | 08/04/2025 05:15 PM |
| 48265 | 15.0 | 3.94 | 0 | 103 | 47 | 93 | 5.10 | -68 | 8 | 08/04/2025 05:00 PM |
| 48264 | 15.0 | 3.94 | 0 | 103 | 46 | 93 | 5.10 | -69 | 8 | 08/04/2025 04:45 PM |
| 48263 | 15.0 | 4.07 | 0 | 104 | 45 | 95 | 5.10 | -68 | 7 | 08/04/2025 04:30 PM |
| 48262 | 15.0 | 3.94 | 0 | 104 | 45 | 94 | 5.10 | -70 | 8 | 08/04/2025 04:15 PM |